FW6650 Weather Reports


Display with metric or nautical units.
time (UTC)temp
F
wind
direction
speed
MPH
gust
MPH
rain 1hr
in
rain 24hr
in
rain mn
in
humidity
%
barometer
mb
20221210010528 61 173 5.0 9.0 0.00 0.00 0.00 87 1014.2
20221210010049 61 198 3.0 8.0 0.00 0.00 0.00 87 1014.3
20221210005526 61 190 2.0 9.0 0.00 0.00 0.00 87 1014.3
20221210005026 61 200 4.0 9.0 0.00 0.00 0.00 87 1014.1
20221210004531 61 234 3.0 7.0 0.00 0.00 0.00 87 1014.3
20221210004027 61 245 3.0 8.0 0.00 0.00 0.00 87 1014.4
20221210003526 61 242 4.0 9.0 0.00 0.00 0.00 86 1014.4
20221210003028 61 177 5.0 13.0 0.00 0.00 0.00 86 1014.3
20221210002529 61 178 6.0 14.0 0.00 0.00 0.00 85 1014.5
20221210002024 61 211 6.0 14.0 0.00 0.00 0.00 85 1014.7
20221210001531 61 199 6.0 12.0 0.00 0.00 0.00 85 1014.6
20221210001026 61 175 5.0 13.0 0.00 0.00 0.00 84 1014.5
20221210000526 61 202 6.0 13.0 0.00 0.00 0.00 84 1014.4
20221210000035 61 181 4.0 14.0 0.00 0.00 0.00 84 1014.4
20221209235528 61 244 6.0 14.0 0.00 0.00 0.00 84 1014.3
20221209235027 61 193 5.0 10.0 0.00 0.00 0.00 84 1014.3
20221209234530 61 211 4.0 9.0 0.00 0.00 0.00 84 1014.3
20221209234032 61 217 3.0 9.0 0.00 0.00 0.00 84 1014.3
20221209233527 61 257 3.0 9.0 0.00 0.00 0.00 83 1014.4
20221209233033 61 246 2.0 6.0 0.00 0.00 0.00 83 1014.4
20221209232529 61 206 1.0 10.0 0.00 0.00 0.00 83 1014.3
20221209232026 61 214 3.0 17.0 0.00 0.00 0.00 82 1014.4
20221209231538 61 198 8.0 17.0 0.00 0.00 0.00 82 1014.4
20221209231026 61 223 4.0 12.0 0.00 0.00 0.00 83 1014.3
20221209230528 61 169 5.0 12.0 0.00 0.00 0.00 83 1014.5
20221209230028 61 212 2.0 6.0 0.00 0.00 0.00 83 1014.6
20221209225526 61 226 1.0 4.0 0.00 0.00 0.00 83 1014.4
20221209225026 61 56 0.0 10.0 0.00 0.00 0.00 83 1014.5
20221209224532 61 104 5.0 10.0 0.00 0.00 0.00 83 1014.6
20221209224025 61 127 5.0 14.0 0.00 0.00 0.00 83 1014.6
20221209223528 60 176 7.0 14.0 0.00 0.00 0.00 85 1014.7
20221209223028 60 163 1.0 7.0 0.00 0.00 0.00 85 1014.8
20221209222527 59 0 0.0 4.0 0.00 0.00 0.00 86 1014.9
20221209222023 59 157 1.0 4.0 0.00 0.00 0.00 87 1014.9
20221209221532 59 141 1.0 8.0 0.00 0.00 0.00 87 1014.8
20221209221026 58 129 4.0 8.0 0.00 0.00 0.00 87 1014.9
20221209220526 59 132 2.0 6.0 0.00 0.00 0.00 87 1015.0
20221209220029 58 148 1.0 2.0 0.00 0.00 0.00 88 1015.1
20221209215528 59 0 0.0 3.0 0.00 0.00 0.00 88 1015.0
20221209215034 58 148 1.0 3.0 0.00 0.00 0.00 87 1015.2
20221209214536 59 0 0.0 2.0 0.00 0.00 0.00 88 1015.2
20221209214027 58 0 0.0 3.0 0.00 0.00 0.00 88 1015.2
20221209213526 58 147 2.0 3.0 0.00 0.00 0.00 87 1015.2
20221209213030 58 116 1.0 3.0 0.00 0.00 0.00 87 1015.1
20221209212528 58 116 1.0 3.0 0.00 0.00 0.00 86 1015.0
20221209212026 59 0 0.0 2.0 0.00 0.00 0.00 87 1014.9
20221209211548 59 101 0.0 2.0 0.00 0.00 0.00 87 1015.0
20221209211026 59 0 0.0 2.0 0.00 0.00 0.00 86 1015.0
20221209210528 59 101 0.0 2.0 0.00 0.00 0.00 85 1015.1
20221209210040 59 101 0.0 4.0 0.00 0.00 0.00 85 1015.0
20221209205525 59 101 1.0 4.0 0.00 0.00 0.00 86 1015.0
20221209205026 59 96 0.0 3.0 0.00 0.00 0.00 86 1015.1
20221209204558 59 94 1.0 3.0 0.00 0.00 0.00 87 1015.4
20221209204026 59 0 1.0 3.0 0.00 0.00 0.00 85 1015.5
20221209203526 59 95 1.0 3.0 0.00 0.00 0.00 85 1015.6
20221209203033 59 128 0.0 4.0 0.00 0.00 0.00 85 1015.7
20221209202526 59 82 0.0 4.0 0.00 0.00 0.00 84 1015.5
20221209202027 59 65 3.0 4.0 0.00 0.00 0.00 85 1015.5
20221209201539 59 74 1.0 4.0 0.00 0.00 0.00 85 1015.5
20221209201027 59 73 3.0 4.0 0.00 0.00 0.00 85 1015.5
20221209200526 59 150 1.0 3.0 0.00 0.00 0.00 85 1015.6
20221209200033 59 152 1.0 3.0 0.00 0.00 0.00 86 1015.8
20221209195526 59 152 0.0 2.0 0.00 0.00 0.00 86 1015.7
20221209195024 59 152 0.0 2.0 0.00 0.00 0.00 86 1015.9
20221209194535 58 152 0.0 2.0 0.00 0.00 0.00 86 1015.9
20221209194026 58 0 0.0 2.0 0.00 0.00 0.00 86 1015.9
20221209193527 58 0 0.0 2.0 0.00 0.00 0.00 87 1015.9
20221209193031 58 0 0.0 3.0 0.00 0.00 0.00 86 1015.9
20221209192529 58 0 0.0 4.0 0.00 0.00 0.00 86 1015.9
20221209192026 58 152 1.0 4.0 0.00 0.00 0.00 86 1015.9
20221209191536 58 0 0.0 4.0 0.00 0.00 0.00 86 1015.8
20221209191027 58 152 1.0 4.0 0.00 0.00 0.00 86 1015.9
20221209190526 59 0 1.0 3.0 0.00 0.00 0.00 86 1015.9
20221209190038 59 0 0.0 3.0 0.00 0.00 0.00 86 1015.9
20221209185526 59 0 0.0 3.0 0.00 0.00 0.00 85 1015.8
20221209185027 59 0 0.0 4.0 0.00 0.00 0.00 86 1015.6
20221209184554 59 41 1.0 4.0 0.00 0.00 0.00 86 1015.8
20221209184026 59 41 2.0 4.0 0.00 0.00 0.00 86 1015.8
20221209183525 59 105 1.0 4.0 0.00 0.00 0.00 87 1015.8
20221209183032 59 61 2.0 4.0 0.00 0.00 0.00 86 1015.7
20221209182527 59 167 0.0 3.0 0.00 0.00 0.00 86 1015.9
20221209182027 59 0 0.0 4.0 0.00 0.00 0.00 87 1015.8
20221209181534 59 0 2.0 4.0 0.00 0.00 0.00 87 1015.9
20221209181027 59 167 1.0 3.0 0.00 0.00 0.00 87 1015.7
20221209180529 59 167 0.0 3.0 0.00 0.00 0.00 87 1015.7
20221209180033 59 167 0.0 1.0 0.00 0.00 0.00 87 1015.8
20221209175527 59 0 0.0 1.0 0.00 0.00 0.00 87 1015.9
20221209175027 59 0 0.0 6.0 0.00 0.00 0.00 87 1016.0
20221209174532 58 0 2.0 6.0 0.00 0.00 0.00 87 1015.9
20221209174026 59 172 0.0 2.0 0.00 0.00 0.00 87 1015.9
20221209173527 59 0 0.0 3.0 0.00 0.00 0.00 86 1015.9
20221209173031 59 172 1.0 5.0 0.00 0.00 0.00 86 1015.9
20221209172527 59 172 1.0 5.0 0.00 0.00 0.00 86 1015.9
20221209172028 59 170 2.0 5.0 0.00 0.00 0.00 86 1015.8
20221209171537 59 0 0.0 5.0 0.00 0.00 0.00 86 1015.9
20221209171025 59 170 3.0 5.0 0.00 0.00 0.00 86 1016.0
20221209170529 59 203 1.0 3.0 0.00 0.00 0.00 86 1016.0
20221209170032 59 204 0.0 3.0 0.00 0.00 0.00 85 1016.0
20221209165526 60 0 0.0 2.0 0.00 0.00 0.00 85 1016.0
20221209165027 60 0 0.0 3.0 0.00 0.00 0.00 85 1016.1
20221209164547 60 0 0.0 4.0 0.00 0.00 0.00 86 1016.2
20221209164025 59 324 2.0 4.0 0.00 0.00 0.00 86 1016.1
20221209163525 59 0 0.0 2.0 0.00 0.00 0.00 85 1016.1
20221209163031 60 0 0.0 3.0 0.00 0.00 0.00 85 1016.1
20221209162526 60 331 0.0 3.0 0.00 0.00 0.00 85 1016.2
20221209162028 60 331 0.0 2.0 0.00 0.00 0.00 84 1016.2
20221209161534 60 0 0.0 1.0 0.00 0.00 0.00 85 1016.2
20221209161026 60 336 0.0 3.0 0.00 0.00 0.00 84 1016.2
20221209160527 60 0 0.0 3.0 0.00 0.00 0.00 84 1016.3
20221209160031 61 322 2.0 3.0 0.00 0.00 0.00 84 1016.2
20221209155525 61 314 0.0 2.0 0.00 0.00 0.00 84 1016.3
20221209155025 61 0 0.0 0.0 0.00 0.00 0.00 84 1016.2
20221209154546 61 0 0.0 0.0 0.00 0.00 0.00 84 1016.1
20221209154026 61 0 0.0 2.0 0.00 0.00 0.00 83 1016.2
20221209153526 61 0 0.0 3.0 0.00 0.00 0.00 83 1016.2
20221209153035 62 314 1.0 3.0 0.00 0.00 0.00 83 1016.2
20221209152528 61 314 1.0 4.0 0.00 0.00 0.00 83 1016.1
20221209152026 62 314 1.0 4.0 0.00 0.00 0.00 82 1016.1
20221209151534 62 304 1.0 3.0 0.00 0.00 0.00 82 1016.1
20221209151025 62 0 0.0 0.0 0.00 0.00 0.00 82 1016.1
20221209150525 62 0 0.0 0.0 0.00 0.00 0.00 82 1016.1
20221209150033 62 0 0.0 0.0 0.00 0.00 0.00 81 1016.0
20221209145526 63 0 0.0 0.0 0.00 0.00 0.00 80 1016.0
20221209145026 63 0 0.0 0.0 0.00 0.00 0.00 80 1016.1
20221209144541 63 0 0.0 0.0 0.00 0.00 0.00 79 1016.0
20221209144026 63 0 0.0 3.0 0.00 0.00 0.00 79 1015.9
20221209143526 63 0 0.0 3.0 0.00 0.00 0.00 79 1015.9
20221209143048 63 301 2.0 3.0 0.00 0.00 0.00 79 1015.9
20221209142526 63 257 1.0 3.0 0.00 0.00 0.00 78 1015.9
20221209142026 63 0 0.0 4.0 0.00 0.00 0.00 78 1016.0
20221209141526 63 0 0.0 6.0 0.00 0.00 0.00 77 1015.9
20221209141026 63 252 1.0 7.0 0.00 0.00 0.00 77 1015.9
20221209140527 64 253 3.0 7.0 0.00 0.00 0.00 76 1015.9
20221209140041 64 225 1.0 8.0 0.00 0.00 0.00 76 1015.9
20221209135525 64 273 2.0 8.0 0.00 0.00 0.00 75 1015.8
20221209135026 65 0 0.0 8.0 0.00 0.00 0.00 75 1015.9
20221209134527 65 246 1.0 8.0 0.00 0.00 0.00 75 1016.0
20221209134025 65 244 3.0 9.0 0.00 0.00 0.00 74 1015.9
20221209133525 65 259 4.0 9.0 0.00 0.00 0.00 73 1016.0
20221209133029 66 261 4.0 9.0 0.00 0.00 0.00 72 1016.0
20221209132526 66 318 1.0 5.0 0.00 0.00 0.00 72 1015.9
20221209132026 66 20 2.0 5.0 0.00 0.00 0.00 73 1015.9
20221209131535 66 360 1.0 6.0 0.00 0.00 0.00 71 1015.9
20221209131026 66 246 1.0 7.0 0.00 0.00 0.00 73 1015.9
20221209130525 66 260 2.0 9.0 0.00 0.00 0.00 74 1015.8
20221209130034 65 242 2.0 9.0 0.00 0.00 0.00 73 1016.0
20221209125525 66 262 3.0 9.0 0.00 0.00 0.00 74 1016.0
20221209125029 66 241 4.0 9.0 0.00 0.00 0.00 74 1016.0
20221209124532 66 245 2.0 9.0 0.00 0.00 0.00 73 1016.0
20221209124028 66 244 3.0 9.0 0.00 0.00 0.00 71 1016.0
20221209123525 66 265 3.0 9.0 0.00 0.00 0.00 67 1015.9
20221209123048 66 211 3.0 8.0 0.00 0.00 0.00 64 1015.9
20221209122527 66 274 3.0 7.0 0.00 0.00 0.00 66 1015.9
20221209122026 66 207 4.0 7.0 0.00 0.00 0.00 66 1015.9
20221209121531 66 177 2.0 9.0 0.00 0.00 0.00 66 1015.9
20221209121026 66 0 1.0 10.0 0.00 0.00 0.00 68 1015.9
20221209120525 66 165 3.0 15.0 0.00 0.00 0.00 71 1015.9
20221209120045 65 128 9.0 15.0 0.00 0.00 0.00 71 1015.9
20221209115528 66 167 6.0 10.0 0.00 0.00 0.00 70 1015.9
20221209115026 66 0 4.0 8.0 0.00 0.00 0.00 68 1015.9
20221209114533 66 177 3.0 8.0 0.00 0.00 0.00 69 1015.9
20221209114026 67 179 3.0 6.0 0.00 0.00 0.00 68 1016.0
20221209113525 66 172 3.0 8.0 0.00 0.00 0.00 68 1016.0
20221209113033 66 235 2.0 12.0 0.00 0.00 0.00 67 1016.0
20221209112525 66 178 5.0 12.0 0.00 0.00 0.00 67 1016.1
20221209112025 67 232 5.0 11.0 0.00 0.00 0.00 67 1016.2
20221209111533 67 42 1.0 4.0 0.00 0.00 0.00 69 1016.2
20221209111026 66 243 1.0 8.0 0.00 0.00 0.00 69 1016.3
20221209110525 66 217 4.0 9.0 0.00 0.00 0.00 70 1016.4
20221209110031 65 155 4.0 12.0 0.00 0.00 0.00 70 1016.4
20221209105526 65 161 6.0 12.0 0.00 0.00 0.00 70 1016.4
20221209105026 65 148 6.0 11.0 0.00 0.00 0.00 71 1016.4
20221209104535 66 144 6.0 10.0 0.00 0.00 0.00 70 1016.5
20221209104027 66 204 5.0 10.0 0.00 0.00 0.00 68 1016.5
20221209103526 66 200 2.0 10.0 0.00 0.00 0.00 69 1016.6
20221209103037 66 259 1.0 9.0 0.00 0.00 0.00 69 1016.6
20221209102527 65 71 3.0 9.0 0.00 0.00 0.00 71 1016.7
20221209102026 65 304 2.0 5.0 0.00 0.00 0.00 75 1016.6
20221209101537 64 0 0.0 3.0 0.00 0.00 0.00 74 1016.7
20221209101026 64 243 1.0 3.0 0.00 0.00 0.00 75 1016.7
20221209100527 64 202 1.0 2.0 0.00 0.00 0.00 75 1016.8
20221209100041 64 182 0.0 2.0 0.00 0.00 0.00 76 1017.0
20221209095527 64 0 0.0 2.0 0.00 0.00 0.00 76 1017.1
20221209095028 64 0 0.0 2.0 0.00 0.00 0.00 76 1017.1
20221209094539 64 0 0.0 4.0 0.00 0.00 0.00 76 1017.1
20221209094026 63 169 1.0 8.0 0.00 0.00 0.00 76 1017.2
20221209093527 63 0 3.0 8.0 0.00 0.00 0.00 78 1017.2
20221209093034 62 150 1.0 3.0 0.00 0.00 0.00 81 1017.3
20221209092526 62 149 0.0 2.0 0.00 0.00 0.00 80 1017.3
20221209092026 62 0 0.0 2.0 0.00 0.00 0.00 81 1017.5
20221209091532 62 142 0.0 4.0 0.00 0.00 0.00 82 1017.5
20221209091026 62 0 0.0 4.0 0.00 0.00 0.00 81 1017.6
20221209090527 62 142 3.0 4.0 0.00 0.00 0.00 81 1017.6
20221209090054 62 0 0.0 0.0 0.00 0.00 0.00 82 1017.5
20221209085526 61 0 0.0 0.0 0.00 0.00 0.00 83 1017.7
20221209085029 61 0 0.0 0.0 0.00 0.00 0.00 83 1017.7
20221209084528 61 0 0.0 0.0 0.00 0.00 0.00 84 1017.8
20221209084027 61 0 0.0 0.0 0.00 0.00 0.00 83 1017.7
20221209083526 61 0 0.0 0.0 0.00 0.00 0.00 83 1017.7
20221209083027 60 0 0.0 2.0 0.00 0.00 0.00 84 1017.8
20221209082526 60 0 0.0 2.0 0.00 0.00 0.00 84 1017.8
20221209082026 60 0 0.0 1.0 0.00 0.00 0.00 84 1017.9
20221209081538 60 0 0.0 1.0 0.00 0.00 0.00 84 1017.9
20221209081026 60 0 0.0 1.0 0.00 0.00 0.00 84 1017.9
20221209080527 60 0 0.0 1.0 0.00 0.00 0.00 84 1017.9
20221209080033 60 0 0.0 2.0 0.00 0.00 0.00 85 1017.9
20221209075526 59 0 0.0 3.0 0.00 0.00 0.00 84 1017.8
20221209075027 59 211 2.0 3.0 0.00 0.00 0.00 85 1017.8
20221209074529 59 120 1.0 3.0 0.00 0.00 0.00 85 1017.8
20221209074032 59 111 1.0 3.0 0.00 0.00 0.00 85 1017.7
20221209073527 59 111 1.0 3.0 0.00 0.00 0.00 85 1017.9
20221209073030 59 0 0.0 0.0 0.00 0.00 0.00 85 1018.0
20221209072527 59 0 0.0 0.0 0.00 0.00 0.00 85 1017.9
20221209072027 59 0 0.0 0.0 0.00 0.00 0.00 86 1017.9
20221209071541 58 0 0.0 3.0 0.00 0.00 0.00 86 1017.9
20221209071027 58 0 1.0 3.0 0.00 0.00 0.00 86 1017.8
20221209070528 58 140 2.0 3.0 0.00 0.00 0.00 86 1017.8
20221209070033 57 140 1.0 2.0 0.00 0.00 0.00 86 1017.8
20221209065529 57 140 0.0 2.0 0.00 0.00 0.00 87 1017.7
20221209065027 57 0 0.0 3.0 0.00 0.00 0.00 87 1017.8
20221209064535 56 140 0.0 4.0 0.00 0.00 0.00 87 1017.8
20221209064027 56 140 1.0 4.0 0.00 0.00 0.00 87 1017.7
20221209063526 56 0 0.0 3.0 0.00 0.00 0.00 88 1017.4
20221209063036 55 138 1.0 3.0 0.00 0.00 0.00 88 1017.4
20221209062527 55 0 0.0 3.0 0.00 0.00 0.00 87 1017.3
20221209062027 55 0 0.0 3.0 0.00 0.00 0.00 87 1017.2
20221209061528 56 136 1.0 3.0 0.00 0.00 0.00 88 1017.1
20221209061027 56 0 1.0 2.0 0.00 0.00 0.00 86 1017.1
20221209060527 56 137 0.0 2.0 0.00 0.00 0.00 88 1017.1
20221209060050 57 0 0.0 2.0 0.00 0.00 0.00 86 1017.1
20221209055528 57 137 0.0 3.0 0.00 0.00 0.00 88 1017.0
20221209055026 56 137 1.0 3.0 0.00 0.00 0.00 88 1017.0
20221209054529 55 137 2.0 3.0 0.00 0.00 0.00 89 1017.1
20221209054026 55 137 1.0 3.0 0.00 0.00 0.00 89 1017.1
20221209053528 55 137 1.0 3.0 0.00 0.00 0.00 89 1017.1
20221209053041 55 137 1.0 3.0 0.00 0.00 0.00 89 1017.1
20221209052527 55 137 1.0 3.0 0.00 0.00 0.00 89 1017.1
20221209052027 55 137 2.0 3.0 0.00 0.00 0.00 89 1017.2
20221209051533 54 137 1.0 3.0 0.00 0.00 0.00 89 1017.1
20221209051028 54 137 1.0 2.0 0.00 0.00 0.00 89 1017.1
20221209050527 54 137 0.0 3.0 0.00 0.00 0.00 89 1017.1
20221209050043 55 0 1.0 3.0 0.00 0.00 0.00 89 1017.0
20221209045529 55 0 0.0 2.0 0.00 0.00 0.00 89 1016.9
20221209045026 55 0 1.0 3.0 0.00 0.00 0.00 89 1016.8
20221209044531 55 0 0.0 3.0 0.00 0.00 0.00 88 1016.7
20221209044025 55 119 0.0 2.0 0.00 0.00 0.00 88 1016.8
20221209043528 56 0 0.0 3.0 0.00 0.00 0.00 88 1016.7
20221209043042 55 119 1.0 3.0 0.00 0.00 0.00 89 1016.7
20221209042528 55 119 0.0 3.0 0.00 0.00 0.00 87 1016.8
20221209042028 56 0 1.0 4.0 0.00 0.00 0.00 89 1016.7
20221209041529 55 113 1.0 4.0 0.00 0.00 0.00 90 1016.7
20221209041027 55 119 2.0 4.0 0.00 0.00 0.00 89 1016.6
20221209040527 55 0 0.0 1.0 0.00 0.00 0.00 89 1016.6
20221209040030 55 0 0.0 2.0 0.00 0.00 0.00 89 1016.6
20221209035526 55 205 0.0 2.0 0.00 0.00 0.00 89 1016.5
20221209035027 55 205 1.0 3.0 0.00 0.00 0.00 89 1016.5
20221209034528 54 0 2.0 3.0 0.00 0.00 0.00 89 1016.5
20221209034026 54 206 0.0 4.0 0.00 0.00 0.00 88 1016.5
20221209033528 54 206 1.0 4.0 0.00 0.00 0.00 88 1016.6
20221209033032 55 171 0.0 2.0 0.00 0.00 0.00 88 1016.6
20221209032527 55 0 0.0 2.0 0.00 0.00 0.00 88 1016.5
20221209032027 56 0 0.0 2.0 0.00 0.00 0.00 89 1016.5
20221209031545 55 171 1.0 2.0 0.00 0.00 0.00 88 1016.4
20221209031027 55 171 0.0 4.0 0.00 0.00 0.00 88 1016.4
20221209030527 55 171 2.0 4.0 0.00 0.00 0.00 88 1016.4
20221209030033 55 0 0.0 2.0 0.00 0.00 0.00 87 1016.5
20221209025528 56 171 1.0 4.0 0.00 0.00 0.00 89 1016.4
20221209025029 55 171 1.0 4.0 0.00 0.00 0.00 88 1016.4
20221209024534 55 171 1.0 2.0 0.00 0.00 0.00 87 1016.6
20221209024026 55 171 0.0 1.0 0.00 0.00 0.00 87 1016.6
20221209023526 55 0 0.0 0.0 0.00 0.00 0.00 87 1016.6
20221209023054 55 0 0.0 2.0 0.00 0.00 0.00 87 1016.6
20221209022527 55 0 0.0 4.0 0.00 0.00 0.00 87 1016.7
20221209022027 55 171 2.0 4.0 0.00 0.00 0.00 87 1016.6
20221209021536 54 172 1.0 3.0 0.00 0.00 0.00 86 1016.6
20221209021031 55 171 0.0 1.0 0.00 0.00 0.00 86 1016.7
20221209020526 55 0 0.0 2.0 0.00 0.00 0.00 87 1016.7
20221209020033 55 0 0.0 4.0 0.00 0.00 0.00 86 1016.8
20221209015531 55 171 2.0 4.0 0.00 0.00 0.00 86 1016.6
20221209015027 55 171 1.0 4.0 0.00 0.00 0.00 86 1016.7
20221209014539 55 171 1.0 4.0 0.00 0.00 0.00 86 1016.6
20221209014029 55 171 2.0 4.0 0.00 0.00 0.00 85 1016.6
20221209013526 56 0 0.0 2.0 0.00 0.00 0.00 86 1016.6
20221209013032 56 0 0.0 2.0 0.00 0.00 0.00 85 1016.7
20221209012527 57 0 0.0 4.0 0.00 0.00 0.00 86 1016.7
20221209012026 57 164 1.0 4.0 0.00 0.00 0.00 86 1016.7
20221209011526 56 164 1.0 4.0 0.00 0.00 0.00 86 1016.7
20221209011025 56 164 1.0 2.0 0.00 0.00 0.00 86 1016.7